Location: Voorhees State Park
(40.6817°N, 74.8983°W)
Time: 02:53:36
(UTC-04:00)

Daily predictions for brighter satellites

Satellite Brightness Start Highest point End
(mag) Time Altitude Azimuth Time Altitude Azimuth Time Altitude Azimuth
BREEZE-M DEB (TANK) 4.4 00:01:11 10° NW 00:03:47 27° NNE 00:09:48 10° E
ALOS 2 3.6 00:07:31 40° NE 00:07:31 40° NE 00:10:48 10° N
Cosmos 1535 Rocket 4.4 00:09:27 76° S 00:10:01 88° E 00:16:27 10° N
Meteor 2-21 Rocket 4.3 00:11:09 74° ESE 00:11:19 74° E 00:17:30 10° NNE
H-2A R/B 4.0 00:07:03 10° NNE 00:09:53 33° NE 00:09:53 33° NE
ASTEX 1 4.5 00:07:27 10° NNW 00:11:57 36° WNW 00:12:25 35° W
Meteor 2-16 Rocket 4.4 00:16:16 66° E 00:16:16 66° E 00:22:19 10° NNE
Terra 4.0 00:16:52 16° W 00:17:06 16° W 00:19:57 10° NW
Meteor 1-13 Rocket 4.4 00:17:12 10° NNW 00:23:03 63° W 00:23:12 63° WSW
Meteor 2-21 4.4 00:23:23 69° WSW 00:23:53 73° W 00:30:06 10° N
Okean 1 Rocket 4.3 00:24:31 36° WNW 00:24:31 36° WNW 00:28:11 10° N
Lacrosse 5 3.6 00:27:11 22° ENE 00:27:11 22° ENE 00:29:11 10° NE
NOSS 3-1 (C) 4.3 00:17:19 10° NNW 00:24:48 64° NE 00:27:26 44° ESE
Cosmos 1809 Rocket 4.5 00:24:57 67° WSW 00:25:28 70° W 00:31:40 10° N
CZ-2C R/B 3.9 00:21:54 10° NE 00:25:21 28° ENE 00:25:21 28° ENE
Cosmos 1302 Rocket 4.2 00:32:00 69° NNW 00:32:00 69° NNW 00:36:45 10° NNE
Meteor 1-11 Rocket 4.0 00:33:06 61° W 00:33:23 62° WNW 00:39:10 10° N
Cosmos 1025 Rocket 4.1 00:29:01 10° NNW 00:32:03 43° NNW 00:32:03 43° NNW
CZ-2C R/B 4.4 00:38:43 29° ENE 00:38:48 29° ENE 00:43:01 10° N
Cosmos 1833 Rocket 3.9 00:34:46 10° NW 00:39:00 30° W 00:39:00 30° W
Gbstr 26 Del rocket 4.4 00:37:07 10° NW 00:40:15 36° NNW 00:40:15 36° NNW
Meteor 2-4 Rocket 3.8 00:37:55 10° NNW 00:42:48 71° NW 00:42:48 71° NW
Cosmos 1943 Rocket 3.6 00:52:36 26° E 00:52:36 26° E 00:56:00 10° NE
Cosmos 2082 Rocket 4.0 00:48:08 10° NW 00:51:28 19° W 00:51:28 19° W
Cosmos 1503 Rocket 4.4 00:58:24 10° NNW 01:02:38 57° NW 01:02:38 57° NW
MOS 1-B Rocket 3.9 01:08:11 73° W 01:08:11 73° W 01:14:33 10° NNW
Cosmos 1802 Rocket 4.3 01:13:51 51° E 01:13:56 51° E 01:19:57 10° NNE
Cosmos 2285 Rocket 4.2 01:13:36 60° W 01:14:07 62° WNW 01:20:28 10° NNE
Cosmos 1605 Rocket 4.4 01:16:56 51° W 01:17:24 52° WNW 01:23:39 10° N
Cosmos 1459 Rocket 4.0 01:20:30 69° E 01:20:30 69° E 01:26:34 10° NNE
Cosmos 1818 4.0 01:31:29 53° ENE 01:31:29 53° ENE 01:35:55 10° NE
SeaSat 1 3.1 01:33:34 50° ENE 01:33:37 50° ENE 01:38:23 10° NNW
Cosmos 2173 Rocket 3.8 01:36:12 85° S 01:36:23 89° ESE 01:42:45 10° N
NOSS 3-1 (A) 4.0 01:35:48 10° NW 01:43:22 62° WSW 01:44:02 60° SW
Cosmos 2369 Rocket 2.9 01:43:16 42° WNW 01:43:40 43° WNW 01:49:01 10° N
Cosmos 968 Rocket 4.0 01:38:43 10° N 01:43:52 54° ENE 01:43:52 54° ENE
Cosmos 2219 4.2 01:42:57 10° N 01:48:16 40° ENE 01:49:54 33° E
ISS -0.1 01:48:33 12° NNW 01:49:27 13° N 01:51:02 10° NNE
Cosmos 1725 Rocket 4.2 01:49:43 54° ESE 01:50:15 55° E 01:56:16 10° NNE
Cosmos 1066 Rocket 4.1 01:44:56 10° N 01:49:55 76° NNE 01:49:55 76° NNE
Tsikada Rocket 4.4 01:48:41 10° N 01:54:53 57° E 01:56:02 49° ESE
Lacrosse 5 rocket 3.3 02:02:21 22° NNW 02:02:21 22° NNW 02:04:52 10° NNE
ATLAS 2AS CENTAUR R/B 3.0 01:56:58 10° NNW 02:05:08 80° NE 02:08:36 37° SE
CZ-2C R/B 3.7 02:02:10 10° N 02:06:44 32° WNW 02:06:52 32° WNW
Lacrosse 5 3.1 02:06:22 32° WNW 02:07:24 36° NW 02:12:06 10° NNE
Cosmos 1777 Rocket 4.3 02:07:52 10° NNW 02:13:01 58° ENE 02:13:32 56° E
PSLV R/B 4.0 02:13:00 10° NNE 02:16:42 61° NNE 02:16:42 61° NNE
CZ-2C R/B 4.3 02:19:47 29° WNW 02:19:47 29° WNW 02:23:05 10° NNW
Cosmos 1666 4.1 02:20:16 36° NE 02:20:16 36° NE 02:22:48 10° NNE
Cosmos 1656 Rocket 3.5 02:33:31 75° SW 02:33:58 82° WNW 02:39:39 10° NNE
Cosmos 1943 Rocket 2.9 02:34:07 37° WNW 02:34:51 39° WNW 02:40:05 10° N
Cosmos 1606 Rocket 4.3 02:36:15 44° NW 02:36:15 44° NW 02:39:39 10° N
Cosmos 2228 3.4 02:36:03 60° ENE 02:36:03 60° ENE 02:39:54 10° NNE
NPP 3.7 02:34:09 10° NNE 02:39:32 65° ESE 02:40:15 59° SE
Cosmos 2058 Rocket 3.4 02:47:43 58° NW 02:47:43 58° NW 02:51:37 10° N
Cosmos 44 Rocket 3.3 02:42:38 10° NW 02:47:24 71° W 02:47:24 71° W
AQUA 3.9 02:45:31 10° NNE 02:50:16 67° ESE 02:50:38 64° SE
Meteor 1-21 4.4 02:45:16 10° NNW 02:50:41 52° W 02:50:49 52° W
SL-8 R/B 3.8 02:46:47 10° WNW 02:51:36 74° NNE 02:56:23 10° ESE
Cosmos 1812 Rocket 4.4 02:52:49 41° ESE 02:53:26 43° E 02:57:41 10° NNE
Resurs 1-4 Rocket 3.9 02:49:20 10° NE 02:53:27 23° E 02:56:08 16° SE
Cosmos 2346 Rocket 4.4 02:51:41 10° N 02:57:58 90° W 03:00:02 46° S
Cosmos 2233 Rocket 4.0 02:59:20 53° SW 03:00:39 67° W 03:06:47 10° N
Cosmos 1570 Rocket 4.0 03:00:19 61° WSW 03:01:04 71° WNW 03:06:26 10° NNE
Meteor 1-15 Rocket 4.2 03:00:27 57° SW 03:01:36 75° W 03:07:30 10° N
GENESIS II 4.4 03:07:26 71° E 03:07:26 71° E 03:11:25 10° NE
ERS-2 2.4 03:05:04 10° NNE 03:08:37 66° E 03:08:37 66° E
ADEOS 3.7 03:04:54 10° NNE 03:10:07 70° ESE 03:11:35 46° SSE
SeaSat 1 4.3 03:13:21 17° WNW 03:13:21 17° WNW 03:15:04 10° WNW
Meteor 2-5 Rocket 4.3 03:06:52 10° N 03:12:39 58° ENE 03:16:49 19° SSE
SL-08 R/B 3.3 03:12:34 60° WSW 03:12:44 61° W 03:17:23 10° NNW
CBERS 1 LM4 rocket 4.3 03:10:20 10° NNE 03:15:06 85° ESE 03:16:07 57° S
BREEZE-M DEB (TANK) 2.7 03:11:30 10° WNW 03:20:35 79° SW 03:22:11 31° SE
Cosmos 972 Rocket 3.8 03:18:47 10° NNW 03:23:43 82° WSW 03:25:39 39° S
Geosat 4.5 03:21:59 10° NNE 03:26:50 49° WNW 03:28:15 38° WSW
ISS -0.2 03:24:55 10° NNW 03:26:56 15° NNE 03:28:57 10° NE
Cosmos 2082 4.0 03:21:57 10° NNW 03:27:35 66° ENE 03:33:09 10° SSE
Cosmos 1072 Rocket 4.5 03:26:25 37° SSW 03:29:10 80° W 03:35:37 10° N
Cosmos 2219 4.2 03:27:28 10° NW 03:31:46 28° W 03:31:46 28° W
Cosmos 1697 Rocket 4.2 03:28:41 16° SSE 03:32:16 30° ESE 03:37:07 10° NE
ARIANE 5 R/B 2.7 03:27:51 10° NNE 03:32:58 70° ESE 03:35:16 33° S
Cosmos 1980 Rocket 4.3 03:35:02 10° SE 03:39:00 20° E 03:43:01 10° NE
CZ-2D R/B 2.5 03:34:49 10° NNE 03:40:16 61° ESE 03:43:29 24° S
Cosmos 1891 Rocket 4.4 03:37:08 30° S 03:40:17 89° ESE 03:46:24 10° N
Milstar 3 Cent rocket 3.6 03:39:47 22° S 03:40:36 23° SSE 03:46:22 10° ESE
Cosmos 44 3.4 03:35:45 10° NW 03:40:48 56° WSW 03:42:37 35° S
Cosmos 2227 Rocket 2.1 03:35:28 10° NNW 03:41:11 89° E 03:46:51 10° SSE
Spot 4 Rocket 4.0 03:36:18 10° N 03:41:27 70° WNW 03:43:25 38° SW
SL-16 R/B 2.6 03:35:58 12° SSE 03:41:45 82° ENE 03:47:57 10° NNW
ERS-1 4.5 03:39:01 10° N 03:44:06 71° WNW 03:46:04 37° SSW
SAR-Lupe-3 4.4 03:44:32 64° SW 03:44:44 66° WSW 03:48:14 10° NNW
Cosmos 2034 Rocket 3.9 03:47:56 28° SSW 03:51:30 79° W 03:57:44 10° N
Lacrosse 5 4.4 03:49:01 10° NW 03:51:45 14° NNW 03:54:28 10° NNE
IRS-1D 3.4 03:47:54 10° NNE 03:52:52 83° WNW 03:55:21 30° SSW
Cosmos 2298 Rocket 3.9 03:47:46 10° NNW 03:53:04 74° WSW 03:57:30 15° S
Cosmos 2278 3.8 03:51:22 32° SW 03:53:56 64° WNW 03:59:36 10° NNE
Cosmos 2369 3.7 03:51:18 32° SW 03:53:57 73° WNW 03:59:38 10° NNE
ATLAS 2AS CENTAUR R/B 4.0 03:49:25 10° WNW 03:55:14 23° WSW 03:55:56 22° WSW
Cosmos 1766 3.8 03:53:53 24° SSE 03:56:06 55° E 03:59:59 10° NNE
USA 161 2.7 03:57:20 30° WNW 03:57:20 30° WNW 03:59:17 10° NNW
Okean O Rocket 3.2 03:52:46 10° NE 03:56:39 30° E 04:00:32 10° SSE
Cosmos 405 Rocket 3.1 03:57:32 10° NNW 04:01:29 48° W 04:02:38 36° SW
Cosmos 2297 Rocket 2.1 03:57:36 10° NNW 04:03:17 85° WSW 04:08:55 10° SSE
UNK 3.7 04:01:08 21° S 04:04:13 68° WSW 04:08:54 10° NNW
Meteor 1-22 Rocket 4.4 04:01:00 19° S 04:05:27 86° E 04:11:36 10° N
Cosmos 1814 Rocket 4.0 04:02:38 27° SSW 04:05:36 80° WNW 04:10:59 10° NNE
ATLAS CENTAUR R/B 2.0 04:03:58 26° SSW 04:06:45 71° ESE 04:11:46 10° NE
UNKNOWN OBJECT B 2.8 04:03:10 10° NNE 04:07:08 79° ESE 04:09:18 25° S
Cosmos 1953 3.8 04:04:16 10° SSE 04:07:56 35° E 04:11:41 10° NNE
Cosmos 972 4.4 04:04:02 10° NNW 04:08:51 60° WSW 04:13:08 14° S
Nadezhda 4 Rocket 3.9 04:04:24 10° N 04:10:36 83° W 04:16:49 10° S
Meteor 1-24 Rocket 3.7 04:05:34 10° NNW 04:11:15 80° W 04:17:06 10° S
GEOS 3 Rocket 3.9 04:09:51 10° SSE 04:14:49 44° WSW 04:19:46 10° NW
Cosmos 1076 Rocket 3.5 04:13:50 10° N 04:18:12 87° E 04:22:30 10° S
EO 1 Del DPAF 3.5 04:17:32 23° SSW 04:19:41 49° W 04:23:28 10° NNW
Cosmos 220 Rocket 4.4 04:15:50 10° NNW 04:19:55 41° WSW 04:22:31 19° SSW
CZ-2C R/B 4.1 04:22:03 10° SSE 04:26:45 71° ENE 04:31:25 10° N
Cosmos 1766 Rocket 3.5 04:27:15 10° N 04:31:40 77° W 04:36:04 10° S
Cosmos 1408 Rocket 3.5 04:27:38 10° NNW 04:32:00 70° W 04:36:22 10° S
Cosmos 1805 3.6 04:29:14 10° S 04:33:07 64° E 04:37:00 10° NNE
Resurs 1-4 Rocket 2.6 04:28:29 10° N 04:33:28 43° WNW 04:37:12 17° SW
Cosmos 1378 3.3 04:31:33 10° NNW 04:35:16 54° W 04:38:50 11° S
CZ-4B R/B 3.5 04:32:01 10° NNE 04:37:36 68° ESE 04:43:01 10° S
Cosmos 990 Rocket 4.0 04:33:30 10° NNW 04:38:42 63° WSW 04:43:52 10° S
Cosmos-2242 3.0 04:35:45 10° S 04:40:05 87° W 04:44:26 10° N
Cosmos 1707 4.4 04:38:18 10° NW 04:41:02 18° W 04:42:16 16° WSW
Cosmos 1634 Rocket 4.0 04:35:25 10° S 04:41:38 83° W 04:47:58 10° N
Cosmos 1441 Rocket 3.3 04:37:59 10° NNW 04:41:54 59° W 04:45:49 10° S
Cosmos 2026 Rocket 4.3 04:35:48 10° N 04:42:10 72° E 04:48:26 10° SSE
MOZ.5/SAFIR/RUBIN 5/SL-8 3.8 04:37:37 10° SSE 04:42:21 88° E 04:47:05 10° NNW
BREEZE-M DEB (TANK)4.404:50:54S04:50:54S04:45:37WNW
DELTA 2 R/B (2) 4.0 04:48:02 22° SW 04:48:53 32° S 04:50:32 10° ESE
CZ-4B R/B 2.9 04:47:11 10° NNE 04:51:15 79° ESE 04:55:04 10° S
Cosmos 1842 Rocket 4.1 04:47:47 10° S 04:52:12 62° E 04:56:38 10° NNE
Cosmos 2195 Rocket 4.4 04:46:27 10° N 04:52:36 83° W 04:58:42 10° S
NOSS 7 (H) 4.2 04:51:51 14° SW 04:54:33 86° NW 04:57:53 10° NNE
Cosmos 1092 Rocket 4.3 04:50:32 10° NNW 04:56:31 49° W 05:02:33 10° SSW
Cosmos 1125 Rocket 3.6 04:53:10 10° NNW 04:58:25 81° ENE 05:03:36 10° SSE
BREEZE-M DEB (TANK) 3.6 04:57:53 10° WNW 05:00:39 42° NNE 05:05:58 10° E
BREEZE-M DEB (TANK) 4.1 04:57:52 10° W 05:01:22 24° NNW 05:03:26 10° NE
ISS -2.4 05:00:45 10° NW 05:03:57 52° NNE 05:07:08 10° ESE
GPS 2-04 Rocket1 3.4 05:01:22 11° WSW 05:04:40 36° S 05:08:05 10° ESE
Cosmos 841 Rocket 4.1 05:05:04 10° SW 05:10:04 43° WNW 05:15:05 10° N
CZ-4B DEB 4.3 05:05:03 10° N 05:10:35 70° WNW 05:16:04 10° SSW
ASTRO E2 4.3 05:08:03 10° SW 05:11:01 20° S 05:13:58 10° SE
ARIANE 5 R/B 4.4 05:08:40 10° NNW 05:11:30 15° WNW 05:14:21 10° W
Cosmos 1697 Rocket 3.4 05:10:48 10° SW 05:16:04 39° WNW 05:21:21 10° N
NOSS 3-4 (A) 4.2 05:11:55 10° NW 05:18:29 43° WSW 05:25:23 10° S
NOSS 3-4 (C) 4.2 05:12:01 10° NW 05:18:37 43° WSW 05:25:34 10° S
Cosmos 1763 Rocket 4.5 05:15:10 10° SW 05:19:48 31° WNW 05:24:26 10° N
CZ-2D R/B 3.8 05:16:06 10° NNW 05:19:48 19° WNW 05:23:28 10° WSW
Cosmos 371 Rocket 4.0 05:16:30 10° S 05:21:12 56° ESE 05:25:55 10° NNE
Thor Agena Rocket 3.7 05:16:37 10° S 05:21:30 49° W 05:26:24 10° NNW
Cosmos 1980 Rocket 2.5 05:17:01 10° SW 05:22:31 55° WNW 05:28:05 10° NNE
CZ-3 Stage 3 4.1 05:12:04 10° W 05:36:54 42° SSW 05:42:21 10° SE
